DW8343 Weather Reports


time (UTC)temp
F
wind
direction
speed
knots
gust
knots
rain 1hr
in
rain 24hr
in
rain mn
in
humidity
%
barometer
mb
20260510075521 62 175 0.0 0.9 0.00 0.00 0.00 88 1013.4
20260510075018 62 153 0.0 2.6 0.00 0.00 0.00 87 1013.4
20260510074516 62 92 0.0 2.6 0.00 0.00 0.00 88 1013.5
20260510074011 62 42 2.6 5.2 0.00 0.00 0.00 88 1013.6
20260510073507 62 156 1.7 1.7 0.00 0.00 0.00 88 1013.4
20260510073004 62 34 0.9 5.2 0.00 0.00 0.00 87 1013.5
20260510072501 62 34 0.9 2.6 0.00 0.00 0.00 87 1013.7
20260510071956 62 61 0.9 7.0 0.00 0.00 0.00 87 1013.3
20260510071452 62 138 0.9 3.5 0.00 0.00 0.00 87 1013.3
20260510070951 61 269 2.6 6.1 0.00 0.00 0.00 88 1013.4
20260510070448 61 102 1.7 5.2 0.00 0.00 0.00 89 1013.2
20260510065943 61 352 1.7 7.0 0.00 0.00 0.00 89 1013.8
20260510065441 61 29 1.7 5.2 0.00 0.00 0.00 89 1013.9
20260510064936 61 91 1.7 2.6 0.00 0.00 0.00 90 1014.2
20260510064434 61 107 3.5 5.2 0.00 0.00 0.00 90 1014.7
20260510063931 61 92 0.9 1.7 0.00 0.00 0.00 91 1014.8
20260510063426 61 62 1.7 2.6 0.00 0.00 0.00 91 1015.3
20260510062924 61 288 0.9 5.2 0.00 0.00 0.00 91 1015.3
20260510062419 61 181 1.7 2.6 0.00 0.00 0.00 92 1015.7
20260510061915 61 41 0.9 0.9 0.00 0.00 0.00 92 1015.8
20260510061412 60 95 0.9 1.7 0.00 0.00 0.00 92 1016.3
20260510060908 60 248 1.7 2.6 0.00 0.00 0.00 93 1015.9
20260510060405 60 330 0.0 2.6 0.00 0.00 0.00 93 1015.6
20260510055901 59 37 0.9 6.1 0.00 0.00 0.00 95 1015.5
20260510055401 59 143 0.9 2.6 0.00 0.00 0.00 96 1015.5
20260510054855 59 14 2.6 5.2 0.00 0.00 0.00 97 1015.5
20260510054350 59 43 0.9 1.7 0.00 0.00 0.00 97 1015.3
20260510053845 59 108 1.7 5.2 0.00 0.00 0.00 98 1015.2
20260510053341 59 287 0.9 1.7 0.00 0.00 0.00 98 1014.8
20260510052838 60 55 0.9 3.5 0.00 0.00 0.00 98 1014.8
20260510052333 60 80 0.9 3.5 0.00 0.00 0.00 98 1015.2
20260510051830 60 337 0.9 1.7 0.00 0.00 0.00 98 1015.3
20260510051327 60 358 0.9 2.6 0.00 0.00 0.00 98 1014.9
20260510050824 61 9 0.0 1.7 0.00 0.00 0.00 98 1014.8
20260510050320 61 359 1.7 5.2 0.00 0.00 0.00 98 1014.1
20260510045817 61 10 0.0 0.9 0.00 0.21 0.21 98 1015.1
20260510045314 62 5 0.9 1.7 0.00 0.21 0.21 97 1014.1
20260510044811 62 31 0.0 0.9 0.00 0.21 0.21 97 1014.2
20260510044308 62 89 3.5 6.1 0.07 0.21 0.21 96 1013.6
20260510043804 62 185 0.0 0.9 0.12 0.21 0.21 95 1014.8
20260510043300 62 185 0.0 1.7 0.35 0.20 0.20 94 1014.9
20260510042758 63 26 2.6 3.5 0.66 0.19 0.19 93 1015.1
20260510042254 64 10 0.9 1.7 0.54 0.14 0.14 89 1016.6
20260510041750 65 315 1.7 2.6 0.31 0.08 0.08 84 1016.9
20260510041248 67 9 0.0 1.7 0.24 0.05 0.05 80 1017.0
20260510040745 68 184 0.0 3.5 0.12 0.03 0.03 75 1016.5
20260510040242 71 243 2.6 5.2 0.00 0.01 0.01 67 1015.8
20260510035736 72 247 0.9 1.7 0.00 0.01 0.01 63 1015.4
20260510035227 73 6 0.0 0.0 0.00 0.01 0.01 60 1014.1
20260510034723 73 6 0.0 0.9 0.00 0.01 0.01 56 1013.6
20260510034222 74 348 0.0 0.9 0.00 0.01 0.01 53 1013.4
20260510033717 74 311 0.9 1.7 0.00 0.01 0.01 53 1012.4
20260510033215 74 1 1.7 3.5 0.00 0.01 0.01 52 1011.9
20260510032711 74 5 0.0 2.6 0.00 0.01 0.01 52 1011.4
20260510032207 75 11 1.7 1.7 0.00 0.01 0.01 52 1010.8
20260510031702 75 42 3.5 5.2 0.00 0.01 0.01 52 1010.5
20260510031159 75 50 0.9 2.6 0.00 0.01 0.01 52 1010.4
20260510030658 75 6 0.0 3.5 0.00 0.01 0.01 52 1010.5
20260510030156 75 81 0.9 2.6 0.00 0.01 0.01 52 1010.5
20260510025653 76 304 1.7 6.1 0.00 0.01 0.01 51 1010.6
20260510025150 76 25 3.5 5.2 0.00 0.01 0.01 50 1011.0
20260510024648 76 40 1.7 2.6 0.00 0.01 0.01 50 1010.8
20260510024144 76 38 1.7 2.6 0.00 0.01 0.01 50 1010.9
20260510023639 76 54 0.9 3.5 0.00 0.01 0.01 50 1011.1
20260510023137 77 62 0.0 2.6 0.00 0.01 0.01 50 1010.9
20260510022636 77 320 0.0 6.1 0.00 0.01 0.01 50 1010.7
20260510022132 77 334 1.7 5.2 0.00 0.01 0.01 49 1010.8
20260510021627 77 257 0.0 1.7 0.00 0.01 0.01 49 1010.4
20260510021125 77 49 0.0 1.7 0.00 0.01 0.01 49 1010.6
20260510020619 77 92 0.9 2.6 0.00 0.01 0.01 49 1010.3
20260510020109 78 337 1.7 3.5 0.00 0.01 0.01 49 1010.0
20260510015606 78 18 2.6 3.5 0.00 0.01 0.01 48 1009.6
20260510015103 78 160 1.7 5.2 0.00 0.01 0.01 48 1009.2
20260510014558 78 318 0.9 3.5 0.00 0.01 0.01 48 1009.3
20260510014055 78 25 0.0 8.7 0.00 0.01 0.01 48 1008.8
20260510013550 78 72 0.9 1.7 0.00 0.01 0.01 48 1009.0
20260510013046 78 74 0.9 2.6 0.00 0.01 0.01 47 1009.0
20260510012545 78 31 1.7 1.7 0.00 0.01 0.01 47 1008.9
20260510012042 79 139 0.9 1.7 0.00 0.01 0.01 46 1009.1
20260510011541 79 80 1.7 3.5 0.00 0.01 0.01 45 1009.1
20260510011037 79 24 0.9 1.7 0.00 0.01 0.01 45 1009.1
20260510010534 79 64 1.7 2.6 0.00 0.01 0.01 46 1009.0
20260510010032 79 191 0.0 1.7 0.00 0.01 0.01 46 1009.0
20260510005527 80 145 1.7 2.6 0.00 0.01 0.01 45 1009.0
20260510005025 80 36 0.9 0.9 0.00 0.01 0.01 45 1009.2
20260510004522 80 118 0.0 2.6 0.00 0.01 0.01 45 1009.2
20260510004021 80 191 1.7 3.5 0.00 0.01 0.01 45 1009.4
20260510003516 80 150 0.9 2.6 0.00 0.01 0.01 45 1009.4
20260510003012 81 269 0.9 2.6 0.00 0.01 0.01 45 1009.0
20260510002508 81 64 2.6 3.5 0.00 0.01 0.01 45 1009.1
20260510002005 81 67 1.7 3.5 0.00 0.01 0.01 45 1009.3
20260510001502 82 36 0.0 0.9 0.00 0.01 0.01 45 1009.3
20260510001000 82 49 1.7 1.7 0.00 0.01 0.01 45 1009.3
20260510000455 82 211 0.0 1.7 0.00 0.01 0.01 44 1009.2
20260509235952 82 254 1.7 5.2 0.00 0.01 0.01 43 1009.1
20260509235449 83 268 0.9 5.2 0.00 0.01 0.01 42 1009.1
20260509234945 83 76 0.9 1.7 0.00 0.01 0.01 42 1009.2
20260509234442 84 37 0.9 2.6 0.00 0.01 0.01 41 1009.4
20260509233940 85 46 0.9 3.5 0.00 0.01 0.01 41 1009.4
20260509233437 84 325 2.6 6.1 0.00 0.01 0.01 41 1009.3
20260509232933 84 37 1.7 9.6 0.00 0.01 0.01 40 1009.4
20260509232431 85 292 3.5 7.8 0.00 0.01 0.01 38 1009.3
20260509231927 85 90 1.7 6.1 0.00 0.01 0.01 35 1009.5
20260509231423 85 42 0.0 6.1 0.00 0.01 0.01 37 1009.5
20260509230922 85 41 0.9 2.6 0.00 0.01 0.01 36 1009.6
20260509230418 84 1 0.0 2.6 0.00 0.01 0.01 37 1009.6
20260509225914 85 48 0.9 5.2 0.00 0.01 0.01 36 1009.6
20260509225411 85 39 1.7 3.5 0.00 0.01 0.01 38 1009.9
20260509224907 85 8 0.0 3.5 0.00 0.01 0.01 37 1009.7
20260509224403 85 36 2.6 3.5 0.00 0.01 0.01 36 1010.0
20260509223900 85 46 1.7 3.5 0.00 0.01 0.01 37 1010.0
20260509223357 86 28 2.6 5.2 0.00 0.01 0.01 32 1010.1
20260509222854 87 40 0.9 3.5 0.00 0.01 0.01 33 1010.1
20260509222354 87 143 0.9 1.7 0.00 0.01 0.01 31 1010.1
20260509221850 87 112 0.9 1.7 0.00 0.01 0.01 33 1010.2
20260509221348 85 26 0.9 5.2 0.00 0.01 0.01 33 1010.2
20260509220843 86 81 1.7 2.6 0.00 0.01 0.01 33 1010.3
20260509220339 86 152 2.6 3.5 0.00 0.01 0.01 33 1010.3
20260509215835 86 30 0.9 3.5 0.00 0.01 0.01 34 1010.3
20260509215332 86 74 0.9 5.2 0.00 0.01 0.01 34 1010.4
20260509214829 86 343 0.9 7.0 0.00 0.01 0.01 36 1010.2
20260509214326 86 21 0.9 2.6 0.00 0.01 0.01 34 1010.2
20260509213823 87 127 2.6 5.2 0.00 0.01 0.01 32 1010.2
20260509213318 87 31 0.0 2.6 0.00 0.01 0.01 34 1010.4
20260509212816 87 17 0.9 1.7 0.00 0.01 0.01 36 1010.5
20260509212314 87 62 1.7 5.2 0.00 0.01 0.01 33 1010.5
20260509211809 86 49 0.0 2.6 0.00 0.01 0.01 38 1010.4
20260509211305 86 149 1.7 3.5 0.00 0.01 0.01 34 1010.7
20260509210802 86 50 0.9 2.6 0.00 0.01 0.01 35 1010.8
20260509210259 87 18 0.0 2.6 0.00 0.01 0.01 37 1010.7
20260509205758 86 76 2.6 3.5 0.00 0.01 0.01 36 1010.8
20260509205248 86 30 2.6 3.5 0.00 0.01 0.01 36 1010.8
20260509204744 86 99 0.9 5.2 0.00 0.01 0.01 36 1011.0
20260509204241 86 79 0.0 2.6 0.00 0.01 0.01 38 1010.9
20260509203737 87 124 0.9 2.6 0.00 0.01 0.01 35 1011.0
20260509203235 86 100 0.0 1.7 0.00 0.01 0.01 39 1011.0
20260509202731 87 247 1.7 3.5 0.00 0.01 0.01 35 1011.0
20260509202227 86 103 0.0 1.7 0.00 0.01 0.01 34 1011.1
20260509201721 85 275 0.9 3.5 0.00 0.01 0.01 36 1011.1
20260509201218 85 59 0.0 1.7 0.00 0.01 0.01 37 1011.2
20260509200714 85 14 0.0 2.6 0.00 0.01 0.01 37 1011.3
20260509200210 85 76 0.0 0.9 0.00 0.01 0.01 34 1011.3
20260509195705 86 49 0.9 2.6 0.00 0.01 0.01 36 1011.4
20260509195200 85 260 0.0 0.9 0.00 0.01 0.01 37 1011.3
20260509194655 87 61 2.6 3.5 0.00 0.01 0.01 34 1011.6
20260509194152 84 68 0.0 2.6 0.00 0.01 0.01 35 1011.6
20260509193649 85 53 1.7 3.5 0.00 0.01 0.01 34 1011.8
20260509193144 86 75 0.9 1.7 0.00 0.01 0.01 33 1011.7
20260509192641 86 75 0.0 0.9 0.00 0.01 0.01 39 1011.6
20260509192135 84 96 0.9 1.7 0.00 0.01 0.01 38 1011.8
20260509191630 85 16 0.9 2.6 0.00 0.01 0.01 36 1012.0
20260509191127 83 352 1.7 6.1 0.00 0.01 0.01 36 1011.9
20260509190623 84 256 0.9 2.6 0.00 0.01 0.01 36 1012.0
20260509190121 85 65 2.6 5.2 0.00 0.01 0.01 34 1012.0
20260509185618 85 70 0.0 0.9 0.00 0.01 0.01 40 1012.1
20260509185114 84 71 0.9 1.7 0.00 0.01 0.01 30 1012.1
20260509184612 83 65 0.9 2.6 0.00 0.01 0.01 32 1012.1
20260509184109 84 42 0.9 5.2 0.00 0.01 0.01 37 1012.2
20260509183604 84 188 0.9 1.7 0.00 0.01 0.01 37 1012.2
20260509183100 84 268 1.7 2.6 0.00 0.01 0.01 40 1012.2
20260509182557 83 73 2.6 3.5 0.00 0.01 0.01 40 1012.4
20260509182053 83 197 0.9 2.6 0.00 0.01 0.01 37 1012.3
20260509181552 83 63 0.9 2.6 0.00 0.01 0.01 39 1012.4
20260509181049 83 114 0.9 2.6 0.00 0.01 0.01 39 1012.5
20260509180544 82 50 0.9 7.0 0.00 0.01 0.01 38 1012.5
20260509180042 83 341 1.7 3.5 0.00 0.01 0.01 42 1012.6
20260509175537 82 197 0.9 2.6 0.00 0.01 0.01 42 1012.7
20260509175035 82 260 1.7 1.7 0.00 0.01 0.01 42 1012.8
20260509174531 83 59 0.9 1.7 0.00 0.01 0.01 41 1013.0
20260509174026 82 318 0.9 2.6 0.00 0.01 0.01 40 1012.8
20260509173520 81 310 0.0 1.7 0.00 0.01 0.01 41 1013.1
20260509173018 81 288 0.9 1.7 0.00 0.01 0.01 40 1013.1
20260509172515 81 207 1.7 3.5 0.00 0.01 0.01 43 1013.3
20260509172010 80 316 0.0 1.7 0.00 0.01 0.01 45 1013.2
20260509171506 79 68 2.6 3.5 0.00 0.01 0.01 41 1013.3
20260509171003 79 43 2.6 5.2 0.00 0.01 0.01 47 1013.2
20260509170458 79 284 1.7 6.1 0.00 0.01 0.01 49 1013.4
20260509165954 78 325 1.7 2.6 0.00 0.01 0.01 56 1013.5
20260509165453 78 60 0.9 6.1 0.00 0.01 0.01 58 1013.4
20260509164949 78 127 2.6 5.2 0.00 0.01 0.01 59 1013.4
20260509164445 77 11 0.9 2.6 0.00 0.01 0.01 58 1013.3
20260509163941 78 244 1.7 2.6 0.00 0.01 0.01 59 1013.4
20260509163439 76 32 2.6 3.5 0.00 0.01 0.01 59 1013.7
20260509162938 77 52 2.6 6.1 0.00 0.01 0.01 62 1013.6
20260509162437 76 242 2.6 3.5 0.00 0.01 0.01 62 1013.6
20260509161932 76 235 1.7 5.2 0.00 0.01 0.01 64 1013.7
20260509161429 74 235 0.0 1.7 0.00 0.01 0.01 64 1013.8
20260509160924 74 99 1.7 1.7 0.00 0.01 0.01 63 1013.7
20260509160420 75 262 1.7 2.6 0.00 0.01 0.01 63 1013.7
20260509155916 74 185 1.7 1.7 0.00 0.01 0.01 66 1013.5
20260509155413 74 223 1.7 2.6 0.00 0.01 0.01 67 1013.5
20260509154909 74 222 0.9 2.6 0.00 0.01 0.01 64 1013.6
20260509154405 74 302 0.9 1.7 0.00 0.01 0.01 66 1013.4
20260509153902 73 343 0.9 0.9 0.00 0.01 0.01 67 1013.6
20260509153400 72 271 0.0 0.9 0.00 0.01 0.01 70 1013.2
20260509152856 72 248 0.0 0.9 0.00 0.01 0.01 69 1013.4
20260509152352 72 108 0.0 1.7 0.00 0.01 0.01 69 1013.1
20260509151850 72 346 0.0 0.0 0.00 0.01 0.01 75 1013.2
20260509151345 72 346 0.0 0.0 0.00 0.01 0.01 72 1013.6
20260509150844 72 343 0.0 0.0 0.00 0.01 0.01 72 1013.5
20260509150341 73 343 0.0 0.9 0.00 0.01 0.01 74 1013.3
20260509145838 72 343 0.9 2.6 0.00 0.01 0.01 76 1013.2
20260509145333 72 344 0.0 1.7 0.00 0.01 0.01 78 1013.1
20260509144830 71 24 0.0 0.9 0.00 0.01 0.01 81 1013.1
20260509144327 70 38 0.9 0.9 0.00 0.01 0.01 82 1013.0
20260509143824 69 15 0.0 0.9 0.00 0.01 0.01 84 1013.2
20260509143321 68 67 0.0 1.7 0.00 0.01 0.01 85 1013.4
20260509142817 67 73 0.0 0.0 0.00 0.01 0.01 86 1013.1
20260509142313 65 114 0.0 0.9 0.00 0.01 0.01 90 1013.5
20260509141809 64 216 0.0 0.0 0.00 0.01 0.01 96 1013.6
20260509141306 63 216 0.0 0.9 0.00 0.01 0.01 96 1013.5
20260509140803 63 232 0.0 0.0 0.00 0.01 0.01 99 1013.6
20260509140300 62 279 0.0 0.0 0.05 0.01 0.01 99 1013.4
20260509135758 62 278 0.0 0.9 0.05 0.01 0.01 99 1013.4
20260509135255 62 28 0.0 0.0 0.00 0.00 0.00 99 1013.2
20260509134752 61 261 0.0 0.0 0.00 0.00 0.00 99 1013.4
20260509134250 60 278 0.0 0.0 0.00 0.00 0.00 99 1013.3
20260509133746 60 278 0.0 0.0 0.00 0.00 0.00 99 1013.2
20260509133243 60 283 0.0 0.0 0.00 0.00 0.00 99 1013.1
20260509132742 59 231 0.0 0.0 0.00 0.00 0.00 99 1013.0
20260509132240 58 256 0.0 0.0 0.00 0.00 0.00 99 1012.8
20260509131736 58 345 0.0 0.0 0.00 0.00 0.00 99 1013.0
20260509131233 57 332 0.0 0.0 0.00 0.00 0.00 99 1012.8
20260509130729 57 258 0.0 0.0 0.00 0.00 0.00 99 1012.6
20260509130225 56 355 0.0 0.0 0.00 0.00 0.00 99 1012.6
20260509125722 56 245 0.0 0.0 0.00 0.00 0.00 99 1012.6
20260509125219 55 245 0.0 0.0 0.00 0.00 0.00 99 1012.6
20260509124715 55 245 0.0 0.0 0.00 0.00 0.00 99 1012.4
20260509124212 55 245 0.0 0.0 0.00 0.00 0.00 99 1012.6
20260509123710 55 247 0.0 0.0 0.00 0.00 0.00 99 1012.5
20260509123207 54 248 0.0 0.0 0.00 0.00 0.00 99 1012.3
20260509122702 54 259 0.0 0.0 0.00 0.00 0.00 99 1012.3
20260509122159 54 249 0.0 0.0 0.00 0.00 0.00 99 1012.3
20260509121655 54 246 0.0 0.0 0.00 0.00 0.00 99 1012.3
20260509121153 54 246 0.0 0.0 0.00 0.00 0.00 99 1012.2
20260509120651 54 245 0.0 0.0 0.00 0.00 0.00 99 1012.2
20260509120149 54 246 0.0 0.0 0.00 0.00 0.00 99 1012.1
20260509115646 55 287 0.0 0.0 0.00 0.00 0.00 99 1012.1
20260509115144 55 288 0.0 0.0 0.00 0.00 0.00 99 1012.1
20260509114642 55 288 0.0 0.0 0.00 0.00 0.00 99 1012.1
20260509114141 55 288 0.0 0.0 0.00 0.00 0.00 99 1012.0
20260509113638 55 289 0.0 0.0 0.00 0.00 0.00 99 1011.9
20260509113135 55 289 0.0 0.0 0.00 0.00 0.00 99 1011.8
20260509112632 55 288 0.0 0.0 0.00 0.00 0.00 99 1011.9
20260509112129 55 291 0.0 0.0 0.00 0.00 0.00 99 1011.8
20260509111626 55 302 0.0 0.0 0.00 0.00 0.00 99 1011.7
20260509111123 55 302 0.0 0.0 0.00 0.00 0.00 99 1011.7
20260509110620 55 302 0.0 0.0 0.00 0.00 0.00 99 1011.6
20260509110117 55 301 0.0 0.0 0.00 0.00 0.00 99 1011.8
20260509105615 54 1 0.0 0.0 0.00 0.00 0.00 99 1011.7
20260509105113 54 1 0.0 0.0 0.00 0.00 0.00 99 1011.7
20260509104609 54 1 0.0 0.0 0.00 0.00 0.00 99 1011.6
20260509104108 55 1 0.0 0.0 0.00 0.00 0.00 99 1011.7
20260509103604 55 1 0.0 0.0 0.00 0.00 0.00 99 1011.8
20260509103102 55 1 0.0 0.0 0.00 0.00 0.00 99 1011.8
20260509102559 54 1 0.0 0.0 0.00 0.00 0.00 99 1012.0
20260509102056 54 1 0.0 0.0 0.00 0.00 0.00 99 1011.9
20260509101552 55 1 0.0 0.0 0.00 0.00 0.00 99 1011.9
20260509101049 55 1 0.0 0.0 0.00 0.00 0.00 99 1012.1
20260509100546 55 2 0.0 0.0 0.00 0.00 0.00 99 1012.1
20260509100044 55 2 0.0 0.0 0.00 0.00 0.00 99 1012.0
20260509095540 55 2 0.0 0.0 0.00 0.00 0.00 99 1012.3
20260509095037 55 2 0.0 0.0 0.00 0.00 0.00 99 1012.4
20260509094533 55 50 0.0 0.0 0.00 0.00 0.00 99 1012.5
20260509094031 56 50 0.0 0.0 0.00 0.00 0.00 99 1012.3
20260509093529 56 50 0.0 0.0 0.00 0.00 0.00 99 1012.3
20260509093026 56 50 0.0 0.0 0.00 0.00 0.00 99 1012.3
20260509092524 56 56 0.0 0.0 0.00 0.00 0.00 99 1012.3
20260509092023 56 56 0.0 0.0 0.00 0.00 0.00 99 1012.3
20260509091519 56 56 0.0 0.0 0.00 0.00 0.00 99 1012.2
20260509091016 56 56 0.0 0.0 0.00 0.00 0.00 99 1012.4
20260509090513 56 56 0.0 0.0 0.00 0.00 0.00 99 1012.3
20260509090011 56 56 0.0 0.0 0.00 0.00 0.00 99 1012.4
20260509085508 56 55 0.0 0.0 0.00 0.00 0.00 99 1012.3
20260509085004 57 55 0.0 0.0 0.00 0.00 0.00 99 1012.1
20260509084501 57 55 0.0 0.0 0.00 0.00 0.00 99 1012.1
20260509083958 58 55 0.0 0.0 0.00 0.00 0.00 99 1012.1
20260509083455 57 56 0.0 0.0 0.00 0.00 0.00 99 1012.4
20260509082952 57 56 0.0 0.0 0.00 0.00 0.00 99 1012.1
20260509082449 57 56 0.0 0.0 0.00 0.00 0.00 99 1012.1
20260509081946 57 56 0.0 0.0 0.00 0.00 0.00 99 1012.0
20260509081444 57 56 0.0 0.0 0.00 0.00 0.00 99 1012.1
20260509080940 58 56 0.0 0.0 0.00 0.00 0.00 99 1012.2
20260509080439 57 56 0.0 0.0 0.00 0.00 0.00 99 1012.4
20260509075936 57 56 0.0 0.0 0.00 0.00 0.00 99 1012.5